Change the Weather History Date:

Saturday, June 29, 2013

  Actual Average (KMIW) Record (KMIW)
Temperature  
Mean Temperature 68 °F 72 °F  
Max Temperature 73 °F 83 °F 93 °F (2012)
Min Temperature 62 °F 62 °F 50 °F (1999)
Degree Days  
Heating Degree Days 0 0  
Month to date heating degree days 28  
Since 1 June heating degree days 28  
Since 1 July heating degree days 7012  
Cooling Degree Days 2 8  
Month to date cooling degree days 156  
Year to date cooling degree days 206  
Since 1 June cooling degree days 156  
Growing Degree Days 18 (Base 50)    
Moisture  
Dew Point 60 °F    
Average Humidity 78    
Maximum Humidity 89    
Minimum Humidity 65    
Precipitation  
Precipitation 0.03 in 0.16 in 0.24 in (2013)
Month to date precipitation 4.97  
Sea Level Pressure  
Sea Level Pressure 29.80 in    
Wind  
Wind Speed 12 mph (NNW)    
Max Wind Speed 26 mph    
Max Gust Speed 32 mph    
Visibility 10 miles    
Events Rain    
T = Trace of Precipitation, MM = Missing Value Source: NWS Daily Summary

Daily Weather History Graph

Daily Weather History Graph

Search for Another Location

Airport or City:

Trip Planner

Search our weather history database for the weather conditions in past years. The results will help you decide how hot, cold, wet, or windy it might be!

Date:

Astronomy

Jun. 29, 2013 Rise Set
Actual Time 5:39 AM CDT 8:49 PM CDT
Civil Twilight 5:05 AM CDT 9:23 PM CDT
Nautical Twilight 4:21 AM CDT 10:07 PM CDT
Astronomical Twilight 3:28 AM CDT 10:59 PM CDT
Moon 12:12 AM CDT 12:57 PM CDT
Length of Visible Light 16h 18m
Length of Day
15h 10m
Waning Gibbous, 55% of the Moon is Illuminated
Jun 29
Waning Gibbous
Jun 29
Last Quarter
Jul 8
New
Jul 15
First Quarter
Jul 22
Full

Hourly Weather History & Observations

Time (CDT) Temp. Dew Point Humidity Pressure Visibility Wind Dir Wind Speed Gust Speed Precip Events Conditions
12:15 AM 67.6 °F 58.6 °F 73% 29.77 in 10.0 mi WNW 9.2 mph - N/A   Clear
12:35 AM 67.5 °F 58.8 °F 74% 29.77 in 10.0 mi NW 8.1 mph - N/A   Clear
12:55 AM 67.1 °F 59.0 °F 75% 29.77 in 10.0 mi NW 9.2 mph - N/A   Clear
1:15 AM 66.6 °F 59.0 °F 77% 29.76 in 10.0 mi NW 9.2 mph - N/A   Clear
1:35 AM 67.1 °F 59.0 °F 75% 29.76 in 10.0 mi NW 9.2 mph - N/A   Scattered Clouds
1:55 AM 65.3 °F 59.0 °F 80% 29.76 in 10.0 mi NW 6.9 mph - N/A   Scattered Clouds
2:15 AM 66.2 °F 59.0 °F 78% 29.76 in 10.0 mi WNW 9.2 mph - N/A   Clear
2:35 AM 65.5 °F 59.0 °F 80% 29.76 in 10.0 mi NW 11.5 mph - N/A   Clear
2:55 AM 65.5 °F 59.2 °F 80% 29.76 in 10.0 mi NW 10.4 mph - N/A   Clear
3:15 AM 64.8 °F 59.4 °F 83% 29.76 in 10.0 mi NW 10.4 mph - N/A   Clear
3:35 AM 64.4 °F 59.4 °F 84% 29.75 in 10.0 mi NW 10.4 mph - N/A   Clear
3:55 AM 63.9 °F 59.5 °F 86% 29.75 in 10.0 mi NW 9.2 mph - N/A   Clear
4:15 AM 63.9 °F 59.5 °F 86% 29.76 in 10.0 mi NW 11.5 mph - N/A   Clear
4:35 AM 64.2 °F 59.5 °F 85% 29.76 in 10.0 mi WNW 10.4 mph - N/A   Clear
4:55 AM 63.7 °F 59.5 °F 86% 29.76 in 10.0 mi NW 8.1 mph - N/A   Clear
5:15 AM 63.5 °F 59.4 °F 86% 29.76 in 10.0 mi NW 9.2 mph - N/A   Clear
5:35 AM 63.1 °F 59.2 °F 87% 29.76 in 10.0 mi NW 10.4 mph - N/A   Clear
5:55 AM 63.3 °F 59.2 °F 86% 29.76 in 10.0 mi NW 8.1 mph - N/A   Clear
6:15 AM 62.8 °F 59.2 °F 88% 29.77 in 10.0 mi WNW 9.2 mph - N/A   Clear
6:35 AM 63.3 °F 59.4 °F 87% 29.77 in 10.0 mi WNW 8.1 mph - N/A   Clear
6:55 AM 63.5 °F 59.0 °F 85% 29.77 in 10.0 mi WNW 11.5 mph - N/A   Clear
7:15 AM 64.4 °F 59.4 °F 84% 29.77 in 10.0 mi NW 10.4 mph - N/A   Clear
7:35 AM 66.2 °F 60.3 °F 81% 29.77 in 10.0 mi NW 11.5 mph - N/A   Clear
7:55 AM 66.4 °F 60.4 °F 81% 29.77 in 10.0 mi NW 13.8 mph - N/A   Scattered Clouds
8:15 AM 66.9 °F 60.6 °F 80% 29.77 in 10.0 mi NNW 12.7 mph 18.4 mph N/A   Scattered Clouds
8:35 AM 68.2 °F 61.2 °F 78% 29.77 in 10.0 mi NNW 13.8 mph 18.4 mph N/A   Clear
8:55 AM 69.6 °F 61.7 °F 76% 29.77 in 10.0 mi NNW 15.0 mph 21.9 mph N/A   Scattered Clouds
9:15 AM 68.9 °F 61.0 °F 76% 29.77 in 10.0 mi NNW 15.0 mph - N/A   Mostly Cloudy
9:35 AM 70.5 °F 61.7 °F 74% 29.77 in 10.0 mi NNW 16.1 mph - N/A   Scattered Clouds
9:55 AM 70.0 °F 61.3 °F 74% 29.76 in 10.0 mi NW 15.0 mph - N/A   Mostly Cloudy
10:15 AM 72.0 °F 62.1 °F 71% 29.75 in 10.0 mi NW 13.8 mph 21.9 mph N/A   Mostly Cloudy
10:35 AM 70.2 °F 61.3 °F 74% 29.75 in 10.0 mi NW 13.8 mph - N/A   Mostly Cloudy
10:55 AM 66.4 °F 62.1 °F 86% 29.77 in 4.0 mi NW 13.8 mph 31.1 mph N/A Rain Rain
11:15 AM 64.8 °F 61.0 °F 88% 29.77 in 10.0 mi NW 17.3 mph 24.2 mph N/A Rain Light Rain
11:35 AM 65.3 °F 61.9 °F 89% 29.77 in 10.0 mi NW 13.8 mph 19.6 mph N/A   Overcast
11:55 AM 66.2 °F 61.9 °F 86% 29.77 in 10.0 mi North 12.7 mph 21.9 mph N/A   Mostly Cloudy
12:15 PM 67.3 °F 61.9 °F 83% 29.77 in 10.0 mi North 13.8 mph 23.0 mph N/A   Mostly Cloudy
12:35 PM 68.7 °F 61.5 °F 78% 29.77 in 10.0 mi North 16.1 mph 19.6 mph N/A   Mostly Cloudy
12:55 PM 67.3 °F 62.6 °F 85% 29.77 in 7.0 mi North 11.5 mph - 0.01 in   Mostly Cloudy
1:15 PM 68.4 °F 61.7 °F 79% 29.78 in 10.0 mi North 18.4 mph 25.3 mph N/A   Overcast
1:35 PM 65.8 °F 61.2 °F 85% 29.78 in 7.0 mi North 12.7 mph 24.2 mph 0.02 in Rain Light Rain
1:55 PM 70.2 °F 63.0 °F 78% 29.77 in 10.0 mi North 17.3 mph 21.9 mph 0.02 in   Mostly Cloudy
2:15 PM 72.0 °F 63.3 °F 74% 29.77 in 10.0 mi NNW 21.9 mph 26.5 mph N/A   Mostly Cloudy
2:35 PM 72.5 °F 61.7 °F 69% 29.78 in 10.0 mi NNW 20.7 mph 26.5 mph N/A   Scattered Clouds
2:55 PM 72.5 °F 62.2 °F 70% 29.79 in 10.0 mi North 18.4 mph 29.9 mph N/A   Mostly Cloudy
3:15 PM 72.5 °F 61.5 °F 68% 29.79 in 10.0 mi NNW 20.7 mph 29.9 mph N/A   Scattered Clouds
3:35 PM 72.5 °F 62.1 °F 70% 29.80 in 10.0 mi North 15.0 mph 27.6 mph N/A   Mostly Cloudy
3:55 PM 73.8 °F 61.7 °F 66% 29.79 in 10.0 mi North 24.2 mph 29.9 mph N/A   Mostly Cloudy
4:15 PM 71.6 °F 61.0 °F 69% 29.80 in 10.0 mi NNW 26.5 mph 32.2 mph N/A   Mostly Cloudy
4:35 PM 71.8 °F 59.5 °F 65% 29.80 in 10.0 mi North 20.7 mph 29.9 mph N/A   Scattered Clouds
4:55 PM 70.3 °F 59.5 °F 69% 29.81 in 10.0 mi North 23.0 mph 28.8 mph N/A   Scattered Clouds
5:15 PM 70.5 °F 59.4 °F 68% 29.81 in 10.0 mi North 18.4 mph 26.5 mph N/A   Mostly Cloudy
5:35 PM 70.0 °F 59.2 °F 68% 29.82 in 10.0 mi NNW 16.1 mph 29.9 mph N/A   Mostly Cloudy
5:55 PM 71.4 °F 59.4 °F 66% 29.82 in 10.0 mi North 21.9 mph 25.3 mph N/A   Scattered Clouds
6:15 PM 69.3 °F 57.4 °F 66% 29.83 in 10.0 mi North 18.4 mph 27.6 mph N/A   Clear
6:35 PM 69.8 °F 57.9 °F 66% 29.83 in 10.0 mi North 18.4 mph 25.3 mph N/A   Clear
6:55 PM 69.3 °F 58.5 °F 68% 29.84 in 10.0 mi North 13.8 mph 27.6 mph N/A   Scattered Clouds
7:15 PM 68.2 °F 58.3 °F 71% 29.85 in 10.0 mi North 12.7 mph 20.7 mph N/A   Mostly Cloudy
7:35 PM 66.6 °F 58.1 °F 74% 29.85 in 10.0 mi North 17.3 mph 25.3 mph N/A   Overcast
7:55 PM 65.5 °F 57.7 °F 76% 29.86 in 10.0 mi North 15.0 mph 20.7 mph N/A   Scattered Clouds
8:15 PM 64.9 °F 57.9 °F 78% 29.86 in 10.0 mi North 12.7 mph 17.3 mph N/A   Scattered Clouds
8:35 PM 64.8 °F 57.9 °F 78% 29.86 in 10.0 mi North 12.7 mph 17.3 mph N/A   Scattered Clouds
8:55 PM 64.8 °F 57.4 °F 77% 29.86 in 10.0 mi North 11.5 mph 18.4 mph N/A   Mostly Cloudy
9:15 PM 64.8 °F 57.6 °F 77% 29.87 in 10.0 mi North 12.7 mph 18.4 mph N/A   Overcast
9:35 PM 64.4 °F 57.6 °F 78% 29.88 in 10.0 mi North 13.8 mph 18.4 mph N/A   Overcast
9:55 PM 64.2 °F 57.6 °F 79% 29.89 in 10.0 mi North 10.4 mph 17.3 mph N/A   Overcast
10:15 PM 63.5 °F 57.4 °F 80% 29.89 in 10.0 mi North 11.5 mph - N/A   Scattered Clouds
10:35 PM 63.5 °F 57.4 °F 80% 29.89 in 10.0 mi North 9.2 mph - N/A   Mostly Cloudy
10:55 PM 63.1 °F 57.4 °F 81% 29.90 in 10.0 mi North 9.2 mph - N/A   Mostly Cloudy
11:15 PM 63.5 °F 57.6 °F 81% 29.90 in 10.0 mi North 8.1 mph - N/A   Mostly Cloudy
11:35 PM 63.0 °F 57.6 °F 82% 29.90 in 10.0 mi North 8.1 mph - N/A   Overcast
11:55 PM 62.6 °F 57.6 °F 84% 29.90 in 10.0 mi North 9.2 mph - N/A   Mostly Cloudy